Weather History for Hurlburt Field, FL

Change the Weather History Date:

Saturday, April 12, 2014

  Actual Average Record
Temperature  
Mean Temperature 63 °F -  
Max Temperature 75 °F 72 °F 86 °F (1999)
Min Temperature 51 °F 55 °F 46 °F (1998)
Degree Days  
Heating Degree Days 2    
Growing Degree Days 13 (Base 50)    
Moisture  
Dew Point 52 °F    
Average Humidity 78    
Maximum Humidity 88    
Minimum Humidity 38    
Precipitation  
Precipitation 0.00 in - - ()
Sea Level Pressure  
Sea Level Pressure 30.15 in    
Wind  
Wind Speed 3 mph (NNE)    
Max Wind Speed 12 mph    
Max Gust Speed -    
Visibility 4 miles    
Events Fog , Rain    
Averages and records for this station are not official NWS values.
T = Trace of Precipitation, MM = Missing Value Source: NWS Daily Summary

Daily Weather History Graph

Daily Weather History Graph

Search for Another Location

Airport:

Trip Planner

Search our weather history database for the weather conditions in past years. The results will help you decide how hot, cold, wet, or windy it might be!

Date:

Astronomy

Apr. 12, 2014 Rise Set
Actual Time 6:22 AM CDT 7:12 PM CDT
Civil Twilight 5:58 AM CDT 7:37 PM CDT
Nautical Twilight 5:29 AM CDT 8:06 PM CDT
Astronomical Twilight 4:59 AM CDT 8:35 PM CDT
Moon 4:59 PM CDT (4/12) 4:38 AM CDT (4/12)
Length of Visible Light 13h 38m
Length of Day
12h 49m
Waxing Gibbous, 93% of the Moon is Illuminated
Apr 12
Waxing Gibbous
Apr 15
Full
Apr 22
Last Quarter
Apr 29
New
May 6
First Quarter

Hourly Weather History & Observations

Time (CDT) Temp. Dew Point Humidity Pressure Visibility Wind Dir Wind Speed Gust Speed Precip Events Conditions
12:58 AM 56.1 °F 51.4 °F 84% 30.16 in 10.0 mi NNW 2.3 mph - N/A   Clear
1:53 AM 55.4 °F 50.0 °F 82% 30.14 in 8.0 mi North 2.3 mph - N/A   Clear
1:58 AM 55.0 °F 50.4 °F 84% 30.15 in 5.0 mi North 3.5 mph - N/A   Haze
2:18 AM 55.4 °F 50.0 °F 82% 30.14 in 2.0 mi NNW 2.3 mph - N/A   Haze
2:23 AM 55.4 °F 50.0 °F 82% 30.13 in 0.8 mi North 2.3 mph - N/A   Haze
2:28 AM 55.4 °F 50.0 °F 82% 30.13 in 1.0 mi NNW 2.3 mph - N/A   Haze
2:33 AM 53.6 °F 50.0 °F 88% 30.13 in 1.0 mi North 2.3 mph - N/A   Haze
2:38 AM 53.6 °F 50.0 °F 88% 30.13 in 0.8 mi North 2.3 mph - N/A   Haze
2:48 AM 55.4 °F 50.0 °F 82% 30.13 in 1.2 mi NNW 2.3 mph - N/A   Haze
2:53 AM 55.4 °F 50.0 °F 82% 30.13 in 2.5 mi NNW 3.5 mph - N/A   Haze
2:55 AM 55.4 °F 50.0 °F 82% 30.13 in 1.5 mi NNW 3.5 mph - N/A   Light Drizzle
2:58 AM 55.4 °F 50.0 °F 82% 30.14 in 1.0 mi NNW 3.5 mph - 0.00 in   Light Drizzle
3:03 AM 55.4 °F 50.0 °F 82% 30.13 in 0.8 mi North 2.3 mph - N/A   Light Drizzle
3:12 AM 55.4 °F 50.0 °F 82% 30.13 in 0.8 mi North 2.3 mph - N/A   Haze
3:17 AM 55.4 °F 50.0 °F 82% 30.13 in 0.5 mi North 2.3 mph - N/A   Haze
3:27 AM 53.6 °F 50.0 °F 88% 30.14 in 0.8 mi North 2.3 mph - N/A   Haze
3:32 AM 53.6 °F 50.0 °F 88% 30.13 in 1.5 mi North 2.3 mph - N/A   Haze
3:37 AM 53.6 °F 50.0 °F 88% 30.14 in 1.0 mi North 2.3 mph - N/A   Haze
3:42 AM 53.6 °F 50.0 °F 88% 30.13 in 0.8 mi NNW 2.3 mph - N/A   Haze
3:47 AM 53.6 °F 50.0 °F 88% 30.13 in 0.5 mi NNW 2.3 mph - N/A   Haze
3:58 AM 53.8 °F 49.8 °F 86% 30.14 in 0.5 mi North 2.3 mph - 0.00 in   Haze
4:18 AM 53.6 °F 50.0 °F 88% 30.14 in 0.2 mi NNW 2.3 mph - N/A Fog Fog
4:38 AM 53.6 °F 50.0 °F 88% 30.14 in 0.5 mi North 3.5 mph - N/A Fog Fog
4:43 AM 53.6 °F 50.0 °F 88% 30.14 in 0.2 mi North 3.5 mph - N/A Fog Fog
4:53 AM 53.6 °F 50.0 °F 88% 30.14 in 0.5 mi North 2.3 mph - N/A Fog Fog
4:58 AM 54.0 °F 50.2 °F 87% 30.15 in 0.5 mi North 2.3 mph - N/A Fog Fog
5:03 AM 53.6 °F 50.0 °F 88% 30.15 in 1.2 mi North 2.3 mph - N/A   Overcast
5:08 AM 53.6 °F 50.0 °F 88% 30.15 in 3.0 mi North 2.3 mph - N/A   Overcast
5:13 AM 53.6 °F 50.0 °F 88% 30.15 in 2.5 mi NNE 2.3 mph - N/A   Overcast
5:18 AM 53.6 °F 50.0 °F 88% 30.15 in 1.0 mi North 2.3 mph - N/A   Mist
5:23 AM 53.6 °F 50.0 °F 88% 30.15 in 0.5 mi NNW 2.3 mph - N/A Fog Fog
5:33 AM 53.6 °F 50.0 °F 88% 30.15 in 0.2 mi NNW 2.3 mph - N/A Fog Fog
5:58 AM 53.6 °F 50.0 °F 88% 30.17 in 0.5 mi North 2.3 mph - N/A Fog Fog
6:13 AM 51.8 °F 48.2 °F 88% 30.16 in 0.2 mi North 2.3 mph - N/A Fog Fog
6:18 AM 53.6 °F 48.2 °F 82% 30.16 in 0.2 mi NNE 2.3 mph - N/A Fog Fog
6:23 AM 53.6 °F 50.0 °F 88% 30.16 in 1.0 mi North 2.3 mph - N/A   Mist
6:28 AM 53.6 °F 50.0 °F 88% 30.16 in 4.0 mi NNE 2.3 mph - N/A   Mostly Cloudy
6:38 AM 53.6 °F 50.0 °F 88% 30.16 in 9.0 mi NNE 2.3 mph - N/A   Mostly Cloudy
6:48 AM 55.4 °F 51.8 °F 88% 30.17 in 2.5 mi Variable 2.3 mph - N/A   Overcast
6:53 AM 55.4 °F 51.8 °F 88% 30.17 in 4.0 mi NE 3.5 mph - N/A   Scattered Clouds
6:58 AM 55.9 °F 52.3 °F 88% 30.18 in 5.0 mi NE 4.6 mph - N/A   Scattered Clouds
7:43 AM 59.0 °F 55.4 °F 88% 30.18 in 2.0 mi ENE 4.6 mph - N/A   Scattered Clouds
7:48 AM 59.0 °F 55.4 °F 88% 30.18 in 4.0 mi ENE 5.8 mph - N/A   Scattered Clouds
7:58 AM 60.6 °F 57.0 °F 88% 30.19 in 10.0 mi ENE 5.8 mph - N/A   Partly Cloudy
8:58 AM 66.9 °F 57.4 °F 71% 30.19 in 10.0 mi East 5.8 mph - N/A   Clear
9:58 AM 72.0 °F 53.4 °F 52% 30.21 in 10.0 mi East 4.6 mph - N/A   Clear
10:58 AM 74.3 °F 51.3 °F 44% 30.21 in 10.0 mi SSE 8.1 mph - 0.00 in   Clear
11:58 AM 74.5 °F 48.9 °F 40% 30.20 in 10.0 mi SSE 10.4 mph - N/A   Clear
12:58 PM 75.2 °F 50.9 °F 42% 30.18 in 10.0 mi SSE 10.4 mph - 0.00 in Rain Light Rain
1:00 PM 75.2 °F 51.8 °F 44% 30.17 in 10.0 mi SSE 11.5 mph - N/A   Clear
1:58 PM 75.6 °F 50.9 °F 42% 30.17 in 10.0 mi SSE 8.1 mph - 0.00 in   Clear
2:58 PM 75.2 °F 50.9 °F 42% 30.14 in 10.0 mi SSE 8.1 mph - N/A   Clear
3:58 PM 74.3 °F 52.0 °F 46% 30.12 in 10.0 mi South 10.4 mph - N/A   Clear
4:58 PM 75.0 °F 48.0 °F 38% 30.11 in 10.0 mi South 8.1 mph - N/A   Clear
5:58 PM 73.0 °F 50.4 °F 45% 30.11 in 10.0 mi South 6.9 mph - N/A   Clear
6:58 PM 69.6 °F 51.8 °F 53% 30.11 in 10.0 mi South 2.3 mph - N/A   Clear
7:58 PM 68.2 °F 55.9 °F 65% 30.11 in 10.0 mi Calm Calm - 0.00 in   Clear
8:58 PM 67.6 °F 57.7 °F 71% 30.11 in 10.0 mi Calm Calm - 0.00 in   Clear
9:58 PM 66.7 °F 59.4 °F 77% 30.12 in 10.0 mi North 2.3 mph - N/A   Clear
10:58 PM 66.7 °F 61.5 °F 83% 30.11 in 10.0 mi Variable 2.3 mph - N/A   Scattered Clouds
11:03 PM 66.2 °F 62.6 °F 88% 30.10 in 10.0 mi SSE 5.8 mph - N/A   Mostly Cloudy
11:58 PM 66.6 °F 61.3 °F 83% 30.12 in 10.0 mi SSE 8.1 mph - N/A   Overcast